Time,TemperatureF,DewpointF,PressureIn,WindDirection,WindDirectionDegrees,WindSpeedMPH,WindSpeedGustMPH,Humidity,HourlyPrecipIn,Conditions,Clouds,dailyrainin,SoftwareType,DateUTC
2013-11-21 00:00:00,32.7,30.9,29.77,WSW,241,0.0,0.0,93,0.00,,,0.00,meteohub,2013-11-21 07:00:00,
2013-11-21 00:06:00,32.7,30.9,29.77,WSW,241,0.0,0.0,93,0.00,,,0.00,meteohub,2013-11-21 07:06:00,
2013-11-21 00:12:00,32.5,30.7,29.77,WSW,241,0.0,0.0,93,0.00,,,0.00,meteohub,2013-11-21 07:12:00,
2013-11-21 00:18:00,32.5,30.7,29.77,WSW,241,0.0,0.0,93,0.00,,,0.00,meteohub,2013-11-21 07:18:00,
2013-11-21 00:24:00,32.5,30.7,29.77,WSW,241,0.0,0.0,93,0.00,,,0.00,meteohub,2013-11-21 07:24:00,
2013-11-21 00:30:00,32.5,30.7,29.77,WSW,241,0.0,0.0,93,0.00,,,0.00,meteohub,2013-11-21 07:30:00,
2013-11-21 00:36:00,32.5,30.7,29.77,WSW,241,0.0,0.0,93,0.00,,,0.00,meteohub,2013-11-21 07:36:00,
2013-11-21 00:42:00,32.5,30.7,29.77,WSW,241,0.0,0.0,93,0.00,,,0.00,meteohub,2013-11-21 07:42:00,
2013-11-21 00:48:00,32.4,30.6,29.78,WSW,241,0.0,0.0,93,0.00,,,0.00,meteohub,2013-11-21 07:48:00,
2013-11-21 00:54:00,32.4,30.6,29.78,WSW,241,0.0,0.0,93,0.00,,,0.00,meteohub,2013-11-21 07:54:00,
2013-11-21 01:00:00,32.4,30.6,29.78,WSW,241,0.0,0.0,93,0.00,,,0.00,meteohub,2013-11-21 08:00:00,
2013-11-21 01:06:00,32.4,30.6,29.78,WSW,241,0.0,0.0,93,0.00,,,0.00,meteohub,2013-11-21 08:06:00,
2013-11-21 01:12:00,32.4,30.7,29.78,WSW,241,0.0,0.0,94,0.00,,,0.00,meteohub,2013-11-21 08:12:00,
2013-11-21 01:18:00,32.4,30.7,29.78,WSW,241,0.0,0.0,94,0.00,,,0.00,meteohub,2013-11-21 08:18:00,
2013-11-21 01:24:00,32.4,30.7,29.78,WSW,241,0.0,0.0,94,0.00,,,0.00,meteohub,2013-11-21 08:24:00,
2013-11-21 01:30:00,32.4,30.7,29.78,WSW,241,0.0,0.0,94,0.00,,,0.00,meteohub,2013-11-21 08:30:00,
2013-11-21 01:37:00,32.4,30.7,29.78,WSW,241,0.0,0.0,94,0.00,,,0.00,meteohub,2013-11-21 08:37:00,
2013-11-21 01:42:00,32.2,30.6,29.78,WSW,241,0.0,0.0,94,0.00,,,0.00,meteohub,2013-11-21 08:42:00,
2013-11-21 01:49:00,32.2,30.6,29.78,WSW,241,0.0,0.0,94,0.00,,,0.00,meteohub,2013-11-21 08:49:00,
2013-11-21 01:55:00,32.2,30.6,29.78,WSW,241,0.0,0.0,94,0.00,,,0.00,meteohub,2013-11-21 08:55:00,
2013-11-21 02:01:00,32.2,30.6,29.78,WSW,241,0.0,0.0,94,0.00,,,0.00,meteohub,2013-11-21 09:01:00,
2013-11-21 02:07:00,32.2,30.6,29.78,WSW,241,0.0,0.0,94,0.00,,,0.00,meteohub,2013-11-21 09:07:00,
2013-11-21 02:13:00,32.2,30.6,29.79,WSW,241,0.0,0.0,94,0.00,,,0.00,meteohub,2013-11-21 09:13:00,
2013-11-21 02:19:00,32.0,30.6,29.79,WSW,241,0.0,0.0,94,0.00,,,0.00,meteohub,2013-11-21 09:19:00,
2013-11-21 02:25:00,32.0,30.6,29.79,WSW,241,0.0,0.0,94,0.00,,,0.00,meteohub,2013-11-21 09:25:00,
2013-11-21 02:31:00,32.0,30.6,29.79,WSW,241,0.0,0.0,94,0.00,,,0.00,meteohub,2013-11-21 09:31:00,
2013-11-21 02:37:00,32.0,30.7,29.79,WSW,241,0.0,0.0,95,0.00,,,0.00,meteohub,2013-11-21 09:37:00,
2013-11-21 02:43:00,32.0,30.7,29.79,WSW,241,0.0,0.0,95,0.00,,,0.00,meteohub,2013-11-21 09:43:00,
2013-11-21 02:49:00,32.0,30.7,29.79,WSW,241,0.0,0.0,95,0.00,,,0.00,meteohub,2013-11-21 09:49:00,
2013-11-21 02:55:00,32.0,30.7,29.79,WSW,241,0.0,0.0,95,0.00,,,0.00,meteohub,2013-11-21 09:55:00,
2013-11-21 03:01:00,32.0,30.7,29.79,WSW,241,0.0,0.0,95,0.00,,,0.00,meteohub,2013-11-21 10:01:00,
2013-11-21 03:07:00,32.2,30.9,29.79,WSW,241,0.0,0.0,95,0.00,,,0.00,meteohub,2013-11-21 10:07:00,
2013-11-21 03:13:00,32.2,30.9,29.79,WSW,241,0.0,0.0,95,0.00,,,0.00,meteohub,2013-11-21 10:13:00,
2013-11-21 03:19:00,32.2,30.9,29.79,WSW,241,0.0,0.0,95,0.00,,,0.00,meteohub,2013-11-21 10:19:00,
2013-11-21 03:25:00,32.2,30.9,29.79,WSW,241,0.0,0.0,95,0.00,,,0.00,meteohub,2013-11-21 10:25:00,
2013-11-21 03:31:00,32.2,30.9,29.79,WSW,241,0.0,0.0,95,0.00,,,0.00,meteohub,2013-11-21 10:31:00,
2013-11-21 03:37:00,32.2,30.9,29.79,WSW,241,0.0,0.0,95,0.00,,,0.00,meteohub,2013-11-21 10:37:00,
2013-11-21 03:43:00,32.0,30.7,29.79,WSW,241,0.0,0.0,95,0.00,,,0.00,meteohub,2013-11-21 10:43:00,
2013-11-21 03:49:00,32.0,30.7,29.79,WSW,241,0.0,0.0,95,0.00,,,0.00,meteohub,2013-11-21 10:49:00,
2013-11-21 03:55:00,32.0,30.7,29.79,WSW,241,0.0,0.0,95,0.00,,,0.00,meteohub,2013-11-21 10:55:00,
2013-11-21 04:01:00,32.0,30.7,29.79,WSW,241,0.0,2.0,95,0.00,,,0.00,meteohub,2013-11-21 11:01:00,
2013-11-21 04:07:00,31.8,30.6,29.79,WSW,241,0.0,2.0,95,0.00,,,0.00,meteohub,2013-11-21 11:07:00,
2013-11-21 04:13:00,31.8,30.6,29.79,WSW,241,0.0,2.0,95,0.00,,,0.00,meteohub,2013-11-21 11:13:00,
2013-11-21 04:19:00,31.8,30.6,29.79,WSW,241,0.0,1.0,95,0.00,,,0.00,meteohub,2013-11-21 11:19:00,
2013-11-21 04:25:00,31.8,30.6,29.80,WSW,241,0.0,2.0,95,0.00,,,0.00,meteohub,2013-11-21 11:25:00,
2013-11-21 04:31:00,31.8,30.6,29.80,WSW,241,0.0,1.0,95,0.00,,,0.00,meteohub,2013-11-21 11:31:00,
2013-11-21 04:37:00,31.8,30.6,29.80,WSW,241,0.0,0.0,95,0.00,,,0.00,meteohub,2013-11-21 11:37:00,
2013-11-21 04:43:00,31.8,30.6,29.81,WSW,241,0.0,0.0,95,0.00,,,0.00,meteohub,2013-11-21 11:43:00,
2013-11-21 04:49:00,31.8,30.6,29.81,WSW,241,0.0,0.0,95,0.00,,,0.00,meteohub,2013-11-21 11:49:00,
2013-11-21 04:55:00,31.8,30.6,29.81,WSW,241,0.0,0.0,95,0.00,,,0.00,meteohub,2013-11-21 11:55:00,
2013-11-21 05:01:00,32.0,30.7,29.81,WSW,241,0.0,0.0,95,0.00,,,0.00,meteohub,2013-11-21 12:01:00,
2013-11-21 05:07:00,32.0,30.7,29.81,WSW,241,0.0,0.0,95,0.00,,,0.00,meteohub,2013-11-21 12:07:00,
2013-11-21 05:13:00,32.0,30.7,29.81,WSW,241,2.0,0.0,95,0.00,,,0.00,meteohub,2013-11-21 12:13:00,
2013-11-21 05:19:00,32.0,30.7,29.82,WSW,241,1.0,3.0,95,0.00,,,0.00,meteohub,2013-11-21 12:19:00,
2013-11-21 05:26:00,32.0,30.7,29.82,WSW,241,0.0,3.0,95,0.00,,,0.00,meteohub,2013-11-21 12:26:00,
2013-11-21 05:32:00,32.2,30.9,29.83,WSW,241,3.0,3.0,95,0.00,,,0.00,meteohub,2013-11-21 12:32:00,
2013-11-21 05:38:00,32.0,30.7,29.83,West,274,2.0,4.0,95,0.00,,,0.00,meteohub,2013-11-21 12:38:00,
2013-11-21 05:44:00,31.8,30.6,29.83,West,274,0.0,4.0,95,0.00,,,0.00,meteohub,2013-11-21 12:44:00,
2013-11-21 05:50:00,31.8,30.6,29.83,West,274,0.0,4.0,95,0.00,,,0.00,meteohub,2013-11-21 12:50:00,
2013-11-21 05:56:00,31.6,30.4,29.83,West,274,0.0,2.0,95,0.00,,,0.00,meteohub,2013-11-21 12:56:00,
2013-11-21 06:02:00,31.6,30.4,29.83,West,274,0.0,0.0,95,0.00,,,0.00,meteohub,2013-11-21 13:02:00,
2013-11-21 06:08:00,31.5,30.2,29.83,West,275,1.0,0.0,95,0.00,,,0.00,meteohub,2013-11-21 13:08:00,
2013-11-21 06:14:00,31.3,30.0,29.84,West,275,0.0,3.0,95,0.00,,,0.00,meteohub,2013-11-21 13:14:00,
2013-11-21 06:20:00,31.1,29.8,29.83,West,275,2.0,3.0,95,0.00,,,0.00,meteohub,2013-11-21 13:20:00,
2013-11-21 06:26:00,30.9,29.7,29.83,West,275,0.0,3.0,95,0.00,,,0.00,meteohub,2013-11-21 13:26:00,
2013-11-21 06:32:00,30.9,29.7,29.84,West,276,0.0,3.0,95,0.00,,,0.00,meteohub,2013-11-21 13:32:00,
2013-11-21 06:38:00,30.9,29.7,29.85,West,276,0.0,3.0,95,0.00,,,0.00,meteohub,2013-11-21 13:38:00,
2013-11-21 06:44:00,30.7,29.5,29.85,West,276,0.0,3.0,95,0.00,,,0.00,meteohub,2013-11-21 13:44:00,
2013-11-21 06:50:00,30.7,29.5,29.86,West,276,0.0,3.0,95,0.00,,,0.00,meteohub,2013-11-21 13:50:00,
2013-11-21 06:56:00,30.9,29.7,29.86,West,276,0.0,0.0,95,0.00,,,0.00,meteohub,2013-11-21 13:56:00,
2013-11-21 07:02:00,30.9,29.7,29.86,West,276,0.0,0.0,95,0.00,,,0.00,meteohub,2013-11-21 14:02:00,
2013-11-21 07:08:00,30.9,29.7,29.86,West,276,0.0,0.0,95,0.00,,,0.00,meteohub,2013-11-21 14:08:00,
2013-11-21 07:14:00,30.9,29.7,29.86,West,276,0.0,0.0,95,0.00,,,0.00,meteohub,2013-11-21 14:14:00,
2013-11-21 07:20:00,30.9,29.7,29.86,West,276,0.0,0.0,95,0.00,,,0.00,meteohub,2013-11-21 14:20:00,
2013-11-21 07:26:00,30.9,29.7,29.86,West,276,0.0,0.0,95,0.00,,,0.00,meteohub,2013-11-21 14:26:00,
2013-11-21 07:32:00,31.1,29.8,29.87,West,276,0.0,0.0,95,0.00,,,0.00,meteohub,2013-11-21 14:32:00,
2013-11-21 07:38:00,31.1,29.8,29.87,West,276,0.0,0.0,95,0.00,,,0.00,meteohub,2013-11-21 14:38:00,
2013-11-21 07:44:00,31.1,29.8,29.88,West,276,0.0,0.0,95,0.00,,,0.00,meteohub,2013-11-21 14:44:00,
2013-11-21 07:50:00,31.3,30.0,29.88,West,276,0.0,0.0,95,0.00,,,0.00,meteohub,2013-11-21 14:50:00,
2013-11-21 07:56:00,31.3,30.0,29.88,West,276,0.0,0.0,95,0.00,,,0.00,meteohub,2013-11-21 14:56:00,
2013-11-21 08:02:00,31.3,30.0,29.88,West,276,0.0,0.0,95,0.00,,,0.00,meteohub,2013-11-21 15:02:00,
2013-11-21 08:08:00,31.3,30.0,29.88,West,276,0.0,0.0,95,0.00,,,0.00,meteohub,2013-11-21 15:08:00,
2013-11-21 08:14:00,31.5,30.2,29.88,West,276,0.0,0.0,95,0.00,,,0.00,meteohub,2013-11-21 15:14:00,
2013-11-21 08:20:00,31.6,30.4,29.88,West,276,0.0,0.0,95,0.00,,,0.00,meteohub,2013-11-21 15:20:00,
2013-11-21 08:26:00,31.5,30.2,29.89,West,276,0.0,0.0,95,0.00,,,0.00,meteohub,2013-11-21 15:26:00,
2013-11-21 08:32:00,31.6,30.4,29.89,West,276,0.0,0.0,95,0.00,,,0.00,meteohub,2013-11-21 15:32:00,
2013-11-21 08:38:00,31.6,30.4,29.89,West,276,0.0,0.0,95,0.00,,,0.00,meteohub,2013-11-21 15:38:00,
2013-11-21 08:44:00,31.6,30.4,29.89,West,276,0.0,0.0,95,0.00,,,0.00,meteohub,2013-11-21 15:44:00,
2013-11-21 08:50:00,31.6,30.4,29.89,West,276,0.0,0.0,95,0.00,,,0.00,meteohub,2013-11-21 15:50:00,
2013-11-21 08:56:00,31.6,30.4,29.89,West,276,0.0,2.0,95,0.00,,,0.00,meteohub,2013-11-21 15:56:00,
2013-11-21 09:02:00,31.6,30.4,29.90,West,276,5.0,7.0,95,0.00,,,0.00,meteohub,2013-11-21 16:02:00,
2013-11-21 09:09:00,31.5,30.0,29.90,West,275,5.0,7.0,94,0.00,,,0.00,meteohub,2013-11-21 16:09:00,
2013-11-21 09:15:00,31.5,30.0,29.90,ENE,64,5.0,8.0,94,0.00,,,0.00,meteohub,2013-11-21 16:15:00,
2013-11-21 09:21:00,31.6,30.2,29.90,East,81,9.0,10.0,94,0.00,,,0.00,meteohub,2013-11-21 16:21:00,
2013-11-21 09:27:00,31.6,30.2,29.91,East,91,8.0,13.0,94,0.00,,,0.00,meteohub,2013-11-21 16:27:00,
2013-11-21 09:33:00,31.5,29.7,29.91,East,91,7.0,13.0,93,0.00,,,0.00,meteohub,2013-11-21 16:33:00,
2013-11-21 09:39:00,31.5,30.0,29.91,ENE,76,8.0,13.0,94,0.00,,,0.00,meteohub,2013-11-21 16:39:00,
2013-11-21 09:45:00,31.3,29.5,29.91,ENE,76,4.0,11.0,93,0.00,,,0.00,meteohub,2013-11-21 16:45:00,
2013-11-21 09:51:00,31.5,29.7,29.91,ENE,77,8.0,11.0,93,0.00,,,0.00,meteohub,2013-11-21 16:51:00,
2013-11-21 09:57:00,31.3,29.5,29.92,East,82,8.0,11.0,93,0.00,,,0.00,meteohub,2013-11-21 16:57:00,
2013-11-21 10:03:00,31.3,29.5,29.92,East,83,3.0,11.0,93,0.00,,,0.00,meteohub,2013-11-21 17:03:00,
2013-11-21 10:09:00,31.3,29.5,29.93,ENE,77,7.0,11.0,93,0.00,,,0.00,meteohub,2013-11-21 17:09:00,
2013-11-21 10:15:00,30.7,28.8,29.93,ENE,64,7.0,11.0,92,0.00,,,0.00,meteohub,2013-11-21 17:15:00,
2013-11-21 10:21:00,30.4,28.0,29.93,ENE,78,7.0,15.0,91,0.00,,,0.00,meteohub,2013-11-21 17:21:00,
2013-11-21 10:27:00,30.0,28.0,29.93,East,79,9.0,15.0,92,0.01,,,0.01,meteohub,2013-11-21 17:27:00,
2013-11-21 10:33:00,29.8,27.9,29.93,East,87,7.0,15.0,92,0.01,,,0.01,meteohub,2013-11-21 17:33:00,
2013-11-21 10:39:00,29.8,27.9,29.93,ENE,72,7.0,15.0,92,0.01,,,0.01,meteohub,2013-11-21 17:39:00,
2013-11-21 10:45:00,29.7,27.7,29.94,East,87,3.0,13.0,92,0.02,,,0.02,meteohub,2013-11-21 17:45:00,
2013-11-21 10:51:00,29.5,27.5,29.94,East,97,7.0,14.0,92,0.02,,,0.02,meteohub,2013-11-21 17:51:00,
2013-11-21 10:57:00,29.5,27.5,29.94,ESE,102,7.0,14.0,92,0.02,,,0.02,meteohub,2013-11-21 17:57:00,
2013-11-21 11:03:00,29.1,26.8,29.94,East,96,2.0,14.0,91,0.02,,,0.02,meteohub,2013-11-21 18:03:00,
2013-11-21 11:09:00,29.1,27.1,29.94,East,95,3.0,11.0,92,0.03,,,0.03,meteohub,2013-11-21 18:09:00,
2013-11-21 11:15:00,29.5,27.5,29.94,East,99,5.0,11.0,92,0.03,,,0.03,meteohub,2013-11-21 18:15:00,
2013-11-21 11:21:00,29.5,27.1,29.94,East,98,10.0,12.0,91,0.03,,,0.03,meteohub,2013-11-21 18:21:00,
2013-11-21 11:27:00,29.7,27.7,29.94,East,93,3.0,12.0,92,0.03,,,0.04,meteohub,2013-11-21 18:27:00,
2013-11-21 11:33:00,29.5,27.1,29.94,East,93,3.0,10.0,91,0.03,,,0.04,meteohub,2013-11-21 18:33:00,
2013-11-21 11:39:00,29.1,26.6,29.95,East,89,9.0,10.0,90,0.03,,,0.04,meteohub,2013-11-21 18:39:00,
2013-11-21 11:45:00,29.1,26.8,29.95,ESE,103,5.0,13.0,91,0.02,,,0.04,meteohub,2013-11-21 18:45:00,
2013-11-21 11:51:00,29.5,27.1,29.94,ESE,102,6.0,13.0,91,0.02,,,0.04,meteohub,2013-11-21 18:51:00,
2013-11-21 11:57:00,29.7,27.3,29.94,East,101,9.0,13.0,91,0.02,,,0.04,meteohub,2013-11-21 18:57:00,
2013-11-21 12:03:00,29.7,27.3,29.94,East,88,9.0,13.0,91,0.03,,,0.05,meteohub,2013-11-21 19:03:00,
2013-11-21 12:09:00,29.5,27.0,29.94,ESE,107,5.0,13.0,90,0.02,,,0.05,meteohub,2013-11-21 19:09:00,
2013-11-21 12:15:00,28.9,26.6,29.95,East,91,7.0,13.0,91,0.02,,,0.05,meteohub,2013-11-21 19:15:00,
2013-11-21 12:21:00,29.3,27.3,29.95,ESE,111,4.0,13.0,92,0.02,,,0.05,meteohub,2013-11-21 19:21:00,
2013-11-21 12:27:00,29.3,26.8,29.95,East,101,6.0,13.0,90,0.01,,,0.05,meteohub,2013-11-21 19:27:00,
2013-11-21 12:33:00,29.3,26.8,29.96,East,93,10.0,11.0,90,0.01,,,0.05,meteohub,2013-11-21 19:33:00,
2013-11-21 12:39:00,28.9,26.4,29.96,East,91,6.0,11.0,90,0.02,,,0.06,meteohub,2013-11-21 19:39:00,
2013-11-21 12:46:00,28.9,26.6,29.96,East,85,5.0,11.0,91,0.02,,,0.06,meteohub,2013-11-21 19:46:00,
2013-11-21 12:52:00,28.8,26.2,29.96,East,91,8.0,11.0,90,0.02,,,0.06,meteohub,2013-11-21 19:52:00,
2013-11-21 12:58:00,28.4,25.9,29.96,ESE,108,8.0,11.0,90,0.02,,,0.06,meteohub,2013-11-21 19:58:00,
2013-11-21 13:04:00,28.6,26.2,29.96,East,100,6.0,12.0,91,0.01,,,0.06,meteohub,2013-11-21 20:04:00,
2013-11-21 13:10:00,28.8,26.4,29.95,East,98,6.0,12.0,91,0.01,,,0.06,meteohub,2013-11-21 20:10:00,
2013-11-21 13:16:00,28.8,26.8,29.96,ESE,102,9.0,10.0,92,0.01,,,0.06,meteohub,2013-11-21 20:16:00,
2013-11-21 13:22:00,28.4,26.1,29.96,ESE,102,6.0,10.0,91,0.01,,,0.06,meteohub,2013-11-21 20:22:00,
2013-11-21 13:28:00,27.9,25.5,29.97,East,99,9.0,10.0,91,0.01,,,0.06,meteohub,2013-11-21 20:28:00,
2013-11-21 13:34:00,27.5,25.2,29.97,East,97,3.0,10.0,91,0.01,,,0.06,meteohub,2013-11-21 20:34:00,
2013-11-21 13:40:00,27.1,25.2,29.97,East,98,5.0,9.0,92,0.00,,,0.06,meteohub,2013-11-21 20:40:00,
2013-11-21 13:46:00,27.1,25.2,29.97,East,98,3.0,8.0,92,0.00,,,0.06,meteohub,2013-11-21 20:46:00,
2013-11-21 13:52:00,27.0,25.0,29.97,East,98,3.0,8.0,92,0.00,,,0.06,meteohub,2013-11-21 20:52:00,
2013-11-21 13:58:00,26.8,24.8,29.97,East,96,5.0,8.0,92,0.00,,,0.06,meteohub,2013-11-21 20:58:00,
2013-11-21 14:04:00,26.4,24.4,29.98,East,96,6.0,8.0,92,0.00,,,0.06,meteohub,2013-11-21 21:04:00,
2013-11-21 14:10:00,26.4,24.6,29.98,East,89,3.0,9.0,93,0.00,,,0.06,meteohub,2013-11-21 21:10:00,
2013-11-21 14:16:00,26.6,24.8,29.99,East,89,3.0,9.0,93,0.00,,,0.06,meteohub,2013-11-21 21:16:00,
2013-11-21 14:22:00,26.8,25.0,29.99,East,91,5.0,9.0,93,0.00,,,0.06,meteohub,2013-11-21 21:22:00,
2013-11-21 14:28:00,27.0,25.2,29.99,East,98,7.0,9.0,93,0.00,,,0.06,meteohub,2013-11-21 21:28:00,
2013-11-21 14:34:00,27.0,25.2,29.99,East,99,5.0,9.0,93,0.00,,,0.06,meteohub,2013-11-21 21:34:00,
2013-11-21 14:40:00,26.8,25.0,30.00,East,99,2.0,10.0,93,0.00,,,0.06,meteohub,2013-11-21 21:40:00,
2013-11-21 14:46:00,26.8,25.0,30.01,East,99,2.0,9.0,93,0.00,,,0.06,meteohub,2013-11-21 21:46:00,
2013-11-21 14:52:00,26.8,24.8,30.01,East,99,1.0,8.0,92,0.00,,,0.06,meteohub,2013-11-21 21:52:00,
2013-11-21 14:58:00,26.6,24.6,30.01,East,99,1.0,5.0,92,0.00,,,0.06,meteohub,2013-11-21 21:58:00,
2013-11-21 15:04:00,26.4,24.4,30.01,East,99,5.0,5.0,92,0.00,,,0.06,meteohub,2013-11-21 22:04:00,
2013-11-21 15:10:00,26.2,24.3,30.02,East,99,3.0,6.0,92,0.00,,,0.06,meteohub,2013-11-21 22:10:00,
2013-11-21 15:17:00,26.2,24.4,30.03,East,99,3.0,6.0,93,0.00,,,0.06,meteohub,2013-11-21 22:17:00,
2013-11-21 15:22:00,26.1,24.3,30.03,East,84,5.0,9.0,93,0.00,,,0.06,meteohub,2013-11-21 22:22:00,
2013-11-21 15:29:00,25.9,24.1,30.04,East,84,5.0,9.0,93,0.00,,,0.06,meteohub,2013-11-21 22:29:00,
2013-11-21 15:35:00,25.5,23.7,30.05,East,83,5.0,9.0,93,0.00,,,0.06,meteohub,2013-11-21 22:35:00,
2013-11-21 15:41:00,25.2,23.4,30.05,East,83,2.0,8.0,93,0.00,,,0.06,meteohub,2013-11-21 22:41:00,
2013-11-21 15:47:00,25.0,23.2,30.06,East,83,7.0,8.0,93,0.00,,,0.06,meteohub,2013-11-21 22:47:00,
2013-11-21 15:53:00,24.4,22.6,30.06,East,82,5.0,8.0,93,0.00,,,0.06,meteohub,2013-11-21 22:53:00,
2013-11-21 15:59:00,24.3,22.5,30.07,East,82,1.0,8.0,93,0.00,,,0.06,meteohub,2013-11-21 22:59:00,
2013-11-21 16:05:00,24.1,22.3,30.08,East,82,4.0,8.0,93,0.00,,,0.06,meteohub,2013-11-21 23:05:00,
2013-11-21 16:11:00,23.7,21.9,30.08,East,82,4.0,7.0,93,0.00,,,0.06,meteohub,2013-11-21 23:11:00,
2013-11-21 16:17:00,23.5,21.7,30.09,East,83,3.0,9.0,93,0.00,,,0.06,meteohub,2013-11-21 23:17:00,
2013-11-21 16:23:00,23.4,21.6,30.09,East,83,3.0,9.0,93,0.00,,,0.06,meteohub,2013-11-21 23:23:00,
2013-11-21 16:29:00,23.4,21.6,30.10,East,79,5.0,9.0,93,0.00,,,0.06,meteohub,2013-11-21 23:29:00,
2013-11-21 16:35:00,23.0,21.2,30.10,ENE,78,7.0,9.0,93,0.00,,,0.06,meteohub,2013-11-21 23:35:00,
2013-11-21 16:41:00,22.6,21.2,30.11,East,85,6.0,9.0,94,0.00,,,0.06,meteohub,2013-11-21 23:41:00,
2013-11-21 16:47:00,22.5,20.7,30.11,East,87,8.0,11.0,93,0.00,,,0.06,meteohub,2013-11-21 23:47:00,
2013-11-21 16:53:00,22.5,21.0,30.12,East,90,6.0,11.0,94,0.00,,,0.06,meteohub,2013-11-21 23:53:00,
2013-11-21 16:59:00,22.1,20.7,30.12,East,87,6.0,13.0,94,0.00,,,0.06,meteohub,2013-11-21 23:59:00,
2013-11-21 17:05:00,21.9,20.5,30.12,East,89,3.0,13.0,94,0.00,,,0.06,meteohub,2013-11-22 00:05:00,
2013-11-21 17:11:00,21.9,20.5,30.13,East,89,3.0,10.0,94,0.00,,,0.06,meteohub,2013-11-22 00:11:00,
2013-11-21 17:17:00,21.7,20.3,30.14,East,88,7.0,9.0,94,0.00,,,0.06,meteohub,2013-11-22 00:17:00,
2013-11-21 17:23:00,21.6,20.1,30.14,East,85,6.0,11.0,94,0.00,,,0.06,meteohub,2013-11-22 00:23:00,
2013-11-21 17:29:00,21.4,19.9,30.15,East,89,7.0,11.0,94,0.00,,,0.06,meteohub,2013-11-22 00:29:00,
2013-11-21 17:35:00,21.0,19.6,30.16,East,89,3.0,10.0,94,0.00,,,0.06,meteohub,2013-11-22 00:35:00,
2013-11-21 17:41:00,21.0,19.6,30.16,East,89,5.0,10.0,94,0.00,,,0.06,meteohub,2013-11-22 00:41:00,
2013-11-21 17:47:00,20.8,19.2,30.17,East,90,3.0,9.0,93,0.00,,,0.06,meteohub,2013-11-22 00:47:00,
2013-11-21 17:53:00,20.7,19.2,30.17,East,89,7.0,9.0,94,0.00,,,0.06,meteohub,2013-11-22 00:53:00,
2013-11-21 17:59:00,20.5,19.0,30.18,East,93,6.0,9.0,94,0.00,,,0.06,meteohub,2013-11-22 00:59:00,
2013-11-21 18:05:00,20.5,18.9,30.19,East,92,3.0,10.0,93,0.00,,,0.06,meteohub,2013-11-22 01:05:00,
2013-11-21 18:11:00,20.3,18.7,30.20,East,87,2.0,10.0,93,0.00,,,0.06,meteohub,2013-11-22 01:11:00,
2013-11-21 18:17:00,19.9,18.3,30.20,East,88,6.0,9.0,93,0.00,,,0.06,meteohub,2013-11-22 01:17:00,
2013-11-21 18:23:00,19.9,18.3,30.21,East,90,5.0,10.0,93,0.00,,,0.06,meteohub,2013-11-22 01:23:00,
2013-11-21 18:29:00,19.8,18.1,30.21,East,83,5.0,10.0,93,0.00,,,0.06,meteohub,2013-11-22 01:29:00,
2013-11-21 18:35:00,19.8,18.1,30.22,East,87,3.0,10.0,93,0.00,,,0.06,meteohub,2013-11-22 01:35:00,
2013-11-21 18:41:00,19.6,18.0,30.22,East,92,3.0,10.0,93,0.00,,,0.06,meteohub,2013-11-22 01:41:00,
2013-11-21 18:47:00,19.6,18.0,30.23,East,91,6.0,10.0,93,0.00,,,0.06,meteohub,2013-11-22 01:47:00,
2013-11-21 18:53:00,19.4,17.8,30.23,East,87,1.0,9.0,93,0.00,,,0.06,meteohub,2013-11-22 01:53:00,
2013-11-21 19:00:00,19.2,17.6,30.24,East,87,5.0,8.0,93,0.00,,,0.06,meteohub,2013-11-22 02:00:00,
2013-11-21 19:06:00,19.0,17.4,30.25,East,87,6.0,8.0,93,0.00,,,0.06,meteohub,2013-11-22 02:06:00,
2013-11-21 19:09:00,19.0,17.4,30.25,East,87,2.0,8.0,93,0.00,,,0.06,meteohub,2013-11-22 02:09:00,
2013-11-21 19:12:00,19.0,17.4,30.25,East,87,2.0,8.0,93,0.00,,,0.06,meteohub,2013-11-22 02:12:00,
2013-11-21 19:15:00,19.0,17.4,30.25,East,87,6.0,8.0,93,0.00,,,0.06,meteohub,2013-11-22 02:15:00,
2013-11-21 19:21:00,19.0,17.4,30.26,East,87,3.0,7.0,93,0.00,,,0.06,meteohub,2013-11-22 02:21:00,
2013-11-21 19:24:00,19.0,17.4,30.26,East,87,5.0,7.0,93,0.00,,,0.06,meteohub,2013-11-22 02:24:00,
2013-11-21 19:27:00,19.0,17.4,30.26,East,87,5.0,7.0,93,0.00,,,0.06,meteohub,2013-11-22 02:27:00,
2013-11-21 19:30:00,18.9,17.2,30.26,East,86,3.0,7.0,93,0.00,,,0.06,meteohub,2013-11-22 02:30:00,
2013-11-21 19:36:00,18.9,17.2,30.27,East,90,3.0,8.0,93,0.00,,,0.06,meteohub,2013-11-22 02:36:00,
2013-11-21 19:42:00,18.9,17.2,30.27,East,90,3.0,8.0,93,0.00,,,0.06,meteohub,2013-11-22 02:42:00,
2013-11-21 19:48:00,18.7,17.1,30.28,East,89,3.0,8.0,93,0.00,,,0.06,meteohub,2013-11-22 02:48:00,
2013-11-21 19:54:00,18.5,16.9,30.27,East,87,5.0,8.0,93,0.00,,,0.06,meteohub,2013-11-22 02:54:00,
2013-11-21 20:00:00,18.3,16.7,30.28,East,88,6.0,7.0,93,0.00,,,0.06,meteohub,2013-11-22 03:00:00,
2013-11-21 20:06:00,18.1,16.5,30.29,East,87,1.0,7.0,93,0.00,,,0.06,meteohub,2013-11-22 03:06:00,
2013-11-21 20:12:00,18.1,16.5,30.29,East,87,2.0,7.0,93,0.00,,,0.06,meteohub,2013-11-22 03:12:00,
2013-11-21 20:18:00,18.0,16.0,30.29,East,87,3.0,7.0,92,0.00,,,0.06,meteohub,2013-11-22 03:18:00,
2013-11-21 20:24:00,18.0,16.0,30.30,East,87,1.0,5.0,92,0.00,,,0.06,meteohub,2013-11-22 03:24:00,
2013-11-21 20:30:00,18.0,16.0,30.31,East,86,2.0,7.0,92,0.00,,,0.06,meteohub,2013-11-22 03:30:00,
2013-11-21 20:36:00,17.8,15.8,30.31,East,85,2.0,8.0,92,0.00,,,0.06,meteohub,2013-11-22 03:36:00,
2013-11-21 20:42:00,17.4,15.4,30.31,East,85,3.0,8.0,92,0.00,,,0.06,meteohub,2013-11-22 03:42:00,
2013-11-21 20:48:00,17.2,15.3,30.32,East,85,6.0,8.0,92,0.00,,,0.06,meteohub,2013-11-22 03:48:00,
2013-11-21 20:54:00,17.1,15.1,30.33,East,81,3.0,7.0,92,0.00,,,0.06,meteohub,2013-11-22 03:54:00,
2013-11-21 21:00:00,16.9,14.9,30.33,East,81,3.0,8.0,92,0.00,,,0.06,meteohub,2013-11-22 04:00:00,
2013-11-21 21:06:00,16.9,14.9,30.33,East,81,4.0,9.0,92,0.00,,,0.06,meteohub,2013-11-22 04:06:00,
2013-11-21 21:12:00,16.7,14.7,30.34,East,80,3.0,9.0,92,0.00,,,0.06,meteohub,2013-11-22 04:12:00,
2013-11-21 21:18:00,16.3,14.2,30.34,East,80,4.0,8.0,91,0.00,,,0.06,meteohub,2013-11-22 04:18:00,
2013-11-21 21:24:00,16.3,14.4,30.34,East,80,2.0,8.0,92,0.00,,,0.06,meteohub,2013-11-22 04:24:00,
2013-11-21 21:30:00,16.2,14.2,30.34,East,79,2.0,8.0,92,0.00,,,0.06,meteohub,2013-11-22 04:30:00,
2013-11-21 21:36:00,16.2,14.0,30.34,ENE,77,3.0,9.0,91,0.00,,,0.06,meteohub,2013-11-22 04:36:00,
2013-11-21 21:42:00,16.0,14.0,30.34,ENE,77,3.0,9.0,92,0.00,,,0.06,meteohub,2013-11-22 04:42:00,
2013-11-21 21:48:00,15.8,13.6,30.35,ENE,77,5.0,9.0,91,0.00,,,0.06,meteohub,2013-11-22 04:48:00,
2013-11-21 21:54:00,15.4,13.3,30.36,ENE,77,3.0,9.0,91,0.00,,,0.06,meteohub,2013-11-22 04:54:00,
2013-11-21 22:00:00,15.3,13.1,30.37,ENE,77,1.0,9.0,91,0.00,,,0.06,meteohub,2013-11-22 05:00:00,
2013-11-21 22:02:00,15.3,13.1,30.37,ENE,77,2.0,9.0,91,0.00,,,0.06,meteohub,2013-11-22 05:02:00,
2013-11-21 22:03:00,15.3,13.1,30.37,ENE,77,3.0,9.0,91,0.00,,,0.06,meteohub,2013-11-22 05:03:00,
2013-11-21 22:06:00,15.3,13.1,30.38,ENE,77,5.0,9.0,91,0.00,,,0.06,meteohub,2013-11-22 05:06:00,
2013-11-21 22:09:00,15.3,13.1,30.38,ENE,77,4.0,9.0,91,0.00,,,0.06,meteohub,2013-11-22 05:09:00,
2013-11-21 22:15:00,15.1,12.9,30.38,ENE,77,5.0,7.0,91,0.00,,,0.06,meteohub,2013-11-22 05:15:00,
2013-11-21 22:19:00,15.1,12.9,30.38,ENE,76,4.0,7.0,91,0.00,,,0.06,meteohub,2013-11-22 05:19:00,
2013-11-21 22:25:00,14.7,12.6,30.39,ENE,78,4.0,8.0,91,0.00,,,0.06,meteohub,2013-11-22 05:25:00,
2013-11-21 22:31:00,14.5,12.4,30.40,ENE,76,5.0,9.0,91,0.00,,,0.06,meteohub,2013-11-22 05:31:00,
2013-11-21 22:37:00,14.5,12.4,30.40,ENE,74,4.0,9.0,91,0.00,,,0.06,meteohub,2013-11-22 05:37:00,
2013-11-21 22:43:00,14.4,12.2,30.40,ENE,74,2.0,9.0,91,0.00,,,0.06,meteohub,2013-11-22 05:43:00,
2013-11-21 22:49:00,14.4,12.2,30.41,ENE,74,3.0,9.0,91,0.00,,,0.06,meteohub,2013-11-22 05:49:00,
2013-11-21 22:55:00,14.2,12.0,30.42,ENE,74,3.0,5.0,91,0.00,,,0.06,meteohub,2013-11-22 05:55:00,
2013-11-21 23:01:00,14.2,12.0,30.43,ENE,74,2.0,5.0,91,0.00,,,0.06,meteohub,2013-11-22 06:01:00,
2013-11-21 23:07:00,14.2,12.0,30.43,ENE,74,5.0,5.0,91,0.00,,,0.06,meteohub,2013-11-22 06:07:00,
2013-11-21 23:13:00,14.0,11.8,30.44,ENE,74,3.0,5.0,91,0.00,,,0.06,meteohub,2013-11-22 06:13:00,
2013-11-21 23:19:00,14.0,11.8,30.45,ENE,74,0.0,7.0,91,0.00,,,0.06,meteohub,2013-11-22 06:19:00,
2013-11-21 23:25:00,13.8,11.7,30.45,ENE,74,3.0,7.0,91,0.00,,,0.06,meteohub,2013-11-22 06:25:00,
2013-11-21 23:31:00,13.8,11.5,30.45,ENE,74,4.0,5.0,90,0.00,,,0.06,meteohub,2013-11-22 06:31:00,
2013-11-21 23:37:00,13.6,11.3,30.46,ENE,74,1.0,7.0,90,0.00,,,0.06,meteohub,2013-11-22 06:37:00,
2013-11-21 23:43:00,13.3,10.9,30.47,ENE,74,4.0,7.0,90,0.00,,,0.06,meteohub,2013-11-22 06:43:00,
2013-11-21 23:49:00,13.1,10.8,30.47,ENE,74,5.0,7.0,90,0.00,,,0.06,meteohub,2013-11-22 06:49:00,
2013-11-21 23:55:00,12.9,10.6,30.47,ENE,74,3.0,5.0,90,0.00,,,0.06,meteohub,2013-11-22 06:55:00,